Location: Monteux
(44.0348°N, 4.9972°E)
Time: 17:21:06
(UTC+00:00)

MOS 1 Rocket - Pass Details

Date: 30 November 2020
Orbit: 614 x 830 km, 97.4° (Epoch: 17 January)

Event Time Altitude Azimuth Distance (km) Brightness Sun altitude
Exits shadow 18:03:18 31° 34° (NE) 1,436 4.5 -21.0°
Maximum altitude 18:05:48 56° 99° (E) 975 3.6 -21.4°
Drops below altitude 10° 18:11:03 10° 177° (S) 2,391 6.1 -22.3°
Sets 18:13:24 0° 182° (S) 3,296 6.9 -22.8°
